Resultado: 29/10/2017 - 2º ROTARY RUN DE PARANAVAI - 10 KM MASCULINO

Posição Nome Tempo
1 PAULO ALVES DOS SANTOS 230 00:29:29
2 CARLOS HENRIQUE DE SOUZA 224 00:29:52
3 MARCELO BAROBOSA DE SOUZA 269 00:30:42
4 JOEL SYCHOCKI 213 00:31:34
5 DIEGO DOS SANTOS MALHEIRO 273 00:32:16
6 LUCIANO MIGUEL DOS SANTOS 258 00:33:18
7 RENALTO PEREIRA DA SILVA 207 00:35:28
8 WILLIAN DE OLIVEIRA ANDRADE 254 00:37:56
9 JOCIEN ROSSINI VENANCIO DA SILVA 226 00:38:29
10 LEONARDO BOCALON 217 00:38:48
11 WANDERLEY ATANAEL DA SILVA 268 00:39:14
12 MANOEL CARVALHO HONORIO 228 00:39:31
13 ROBSON ALBERTO DA LUZ ACORRENOR 243 00:39:36
14 REGINALDO BERALDO LIFE RUNNING 259 00:39:40
15 ELENILSON ALMEIDA DE SOUZA ACORRENOR 239 00:39:48
16 THIAGO TADEU PAULIN DE OLIVEIRA 255 00:39:51
17 DOUGLAS FERNANDO LISBOA DE SOUZA 223 00:40:28
18 BRUNO DOS SANTOS DA SILVA ACORRENOR 245 00:40:39
19 IVO RODRIGUES DOS SANTOS ACORRENOR 237 00:41:16
20 RICARDO FORATTO NEVES 229 00:41:25
21 ROGÉRIO DA SILVEIRA 275 00:41:26
22 CLAUDIO AMANCIO VALLIN ACORRENOR 240 00:42:06
23 LUCAS PIRES PACHO 208 00:42:08
24 JOSÉ FERREIA DE LIMA ACORRENOR 233 00:42:11
25 GIZIVALDO DO CARMO E JUSUS ACORRENOR 251 00:42:21
26 AGUINALDO VIENCINSKI ACORRENOR 236 00:43:03
27 CARLOS SOUZA MOREIRA ACORRENOR 242 00:43:06
28 OSMAR A CAVALHEIRO ACORRENOR 248 00:43:45
29 WAGNER DE OLIVEIRA DOS SANTOS - UNIMED 283 00:44:03
30 PAULO SOARES PERSONAL COACH 271 00:44:25
31 HUMBERTO FRADINCONI ACORRENOR 241 00:45:33
32 WILSON JOSE DE LIMA JUNIOR 211 00:45:43
33 ADEMIR BARIZON 232 00:45:48
34 MARCELO SANCHES 253 00:45:50
35 PABLO GONÇALVEZ DE SOUZA PERSONAL COACH 270 00:46:42
36 GUSTAVO MALMANN PERSONAL COACH 272 00:46:42
37 JOÃO PAULO DE BRITO DA SILVA 216 00:48:31
38 ALISON CARDOSO DE OLIVEIRA - RPC 274 00:48:41
39 EDSON GOMES 222 00:49:26
40 EDNER LEANDRO DOS SANTOS 225 00:49:28
41 WELINGTON FERREIRA CAETANO LIFE RUNNING 260 00:49:46
42 JOSE CALOS DALOLIO ACORRENOR 244 00:49:51
43 ADELMO SOARES PERSONAL COACH 279 00:49:53
44 ALDERICO BARBOSA (ACORRENOR) 276 00:50:24
45 JOÃO DA COSTA GANDRAO ACORRENOR 238 00:52:05
46 WILSON IGNACHEWSKI FILHO 206 00:52:11
47 ALAN CARLOS MARTELÉCIO 267 00:53:44
48 OSAFÁ PEREIRA DA CRUZ 257 00:54:27
49 DIRCEU HENRIQUE ROCHA BATISTA PERSONAL COACH 265 00:54:54
50 LUCAS BORGHI MORTATI 284 00:55:00
51 PEDRO GEHLEN 282 00:57:21
52 FREDERICO BONFIM NEVES LIFE RUNNING 262 01:01:55
53 RUBENS LUIZ NEVES 215 01:07:43